Location: Newark
(52.4787°S, 179.0532°W)
Time: 19:49:21
(UTC+00:00)

Envisat - Pass Details

Date: 22 October 2019
Orbit: 764 x 766 km, 98.1° (Epoch: 21 November)

Event Time Altitude Azimuth Distance (km) Brightness Sun altitude
Rises 09:05:12 0° 175° (S) 3,277 7.0 -18.3°
Reaches altitude 10° 09:08:29 10° 197° (SSW) 2,343 6.5 -18.6°
Maximum altitude 09:11:18 15° 230° (SW) 2,011 6.2 -18.9°
Drops below altitude 10° 09:14:06 10° 264° (W) 2,331 6.1 -19.2°
Sets 09:17:22 0° 286° (WNW) 3,250 6.5 -19.5°
